This is the latest recevied weather packets stored in our database for station/object KK4XZ. If no packets are shown the sender has not sent any weather packets the latest 10 day(s).
| Time | Temp. | Humidity | Pressure | Rain* | Wind** | Luminosity | Snow |
|---|---|---|---|---|---|---|---|
| 1777826736 | 18.33° C | 40% | 1019.3 hPa | 0 mm | - | - | - |
| 1777826126 | 18.89° C | 40% | 1019.4 hPa | 0 mm | - | - | - |
| 1777825521 | 18.33° C | 40% | 1019.5 hPa | 0 mm | - | - | - |
| 1777824936 | 18.33° C | 40% | 1019.7 hPa | 0 mm | - | - | - |
| 1777824332 | 17.78° C | 40% | 1019.7 hPa | 0 mm | - | - | - |
| 1777823727 | 17.78° C | 42% | 1019.7 hPa | 0 mm | - | - | - |
| 1777823122 | 18.33° C | 43% | 1019.8 hPa | 0 mm | - | - | - |
| 1777822517 | 17.78° C | 42% | 1019.9 hPa | 0 mm | - | - | - |
| 1777821932 | 17.22° C | 42% | 1019.9 hPa | 0 mm | - | - | - |
| 1777821327 | 17.22° C | 43% | 1019.9 hPa | 0 mm | - | - | - |
| 1777820722 | 16.11° C | 42% | 1019.9 hPa | 0 mm | - | - | - |
| 1777820118 | 16.67° C | 43% | 1019.6 hPa | 0 mm | - | - | - |
| 1777819533 | 16.11° C | 42% | 1019.6 hPa | 0 mm | - | - | - |
| 1777818928 | 15.56° C | 42% | 1019.5 hPa | 0 mm | - | - | - |
| 1777818323 | 15.56° C | 43% | 1019.5 hPa | 0 mm | - | - | - |
| 1777817718 | 15° C | 47% | 1019.6 hPa | 0 mm | - | - | - |
| 1777817134 | 15° C | 51% | 1019.7 hPa | 0 mm | - | - | - |
| 1777816529 | 14.44° C | 56% | 1019.7 hPa | 0 mm | - | - | - |
| 1777815924 | 13.89° C | 58% | 1019.5 hPa | 0 mm | - | - | - |
| 1777815320 | 13.33° C | 63% | 1019.3 hPa | 0 mm | - | - | - |
| 1777814734 | 12.78° C | 70% | 1019.4 hPa | 0 mm | - | - | - |
| 1777814130 | 12.22° C | 73% | 1019.2 hPa | 0 mm | - | - | - |
| 1777813525 | 11.67° C | 78% | 1019.3 hPa | 0 mm | - | - | - |
| 1777812920 | 11.11° C | 81% | 1019.4 hPa | 0 mm | - | - | - |
| 1777812335 | 10.56° C | 83% | 1019.3 hPa | 0 mm | - | - | - |
* Rain latest hour (hover to see other rain measurements)
** Current wind speed in m/s (hover to see current wind gust speed)